エルスト-ピサロ彗星

133P/(7968) Elst-Pizarro (1996)

English version
Home page
Updated on January 17, 2006

---------------------------------------------------------------------

・ プロフィール

符号 133P/(7968) 1996 N2
発見日 1996年7月14日
発見光度 18.3等
発見者 Eric W. Elst, Guido Pizarro (European Southern Observatory)

・ 軌道要素

   The following improved orbital elements by Kenji Muraoka, are 
  from 152 observations 1985 to 1996, perturbations by 9 Plantes,
  Moon and 5 minor planets were taken into account. 
   The mean residual is +/- 0.61 arc seconds.

      Epoch  =  1996 Apr. 27.0  TT       JDT = 2450200.5
          T  =  1996 Apr. 18.38774       +/- 0.02777 (m.e.) TT
       Peri. =  133.30399                +/- 0.00721
       Node  =  160.26603                +/- 0.00086   (2000.0)
       Incl. =    1.38424                +/- 0.00009
          q  =    2.6275500              +/- 0.0000313 AU
          e  =    0.1674936              +/- 0.0000100
          a  =    3.1561918              +/- 0.0000170 AU
          n  =    0.17577576             +/- 0.00000142
          P  =    5.607                  +/- 0.0000452  years

・ 星図

・ 1995 Jan. 3 - 1996 Dec. 23
・ 1996 Feb. 7 - 1997 Dec. 18

・ 光度変化

        m1 = 9.1 + 5 logΔ + 16.5 log r

---------------------------------------------------------------------

軌道要素は村岡健治氏の計算によるものです。
星図は StellaNavigator Ver.2.0 for Windows (アストロアーツ 編著 / アスキー出版局刊) で作成したものです。
光度グラフはComet for Windowsで作成したものです。

---------------------------------------------------------------------

Copyright(C) Seiichi Yoshida (comet@aerith.net). All rights reserved.